This is the latest recevied weather packets stored in our database for station/object SR8WXE. If no packets are shown the sender has not sent any weather packets the latest 10 day(s).
| Time | Temp. | Humidity | Pressure | Rain* | Wind** | Luminosity | Snow |
|---|---|---|---|---|---|---|---|
| 1777452138 | 8.89° C | 45% | 1028.7 hPa | 0 mm | - | - | - |
| 1777451838 | 8.33° C | 46% | 1028.8 hPa | 0 mm | - | - | - |
| 1777451538 | 7.78° C | 46% | 1028.8 hPa | 0 mm | - | - | - |
| 1777451238 | 7.78° C | 44% | 1028.8 hPa | 0 mm | - | - | - |
| 1777450937 | 8.33° C | 47% | 1028.8 hPa | 0 mm | - | - | - |
| 1777450637 | 8.33° C | 46% | 1028.7 hPa | 0 mm | - | - | - |
| 1777450337 | 8.33° C | 48% | 1028.7 hPa | 0 mm | - | - | - |
| 1777450037 | 8.33° C | 47% | 1028.7 hPa | 0 mm | - | - | - |
| 1777449736 | 7.78° C | 49% | 1028.8 hPa | 0 mm | - | - | - |
| 1777449436 | 7.78° C | 50% | 1028.7 hPa | 0 mm | - | - | - |
| 1777449136 | 7.78° C | 49% | 1028.8 hPa | 0 mm | - | - | - |
| 1777448835 | 8.33° C | 51% | 1028.8 hPa | 0 mm | - | - | - |
| 1777448535 | 7.78° C | 53% | 1028.8 hPa | 0 mm | - | - | - |
| 1777448235 | 7.78° C | 52% | 1028.7 hPa | 0 mm | - | - | - |
| 1777447934 | 7.78° C | 55% | 1028.7 hPa | 0 mm | - | - | - |
| 1777447634 | 7.22° C | 57% | 1028.6 hPa | 0 mm | - | - | - |
| 1777447334 | 7.22° C | 58% | 1028.7 hPa | 0 mm | - | - | - |
| 1777447034 | 7.22° C | 56% | 1028.7 hPa | 0 mm | - | - | - |
| 1777446733 | 6.67° C | 59% | 1028.7 hPa | 0 mm | - | - | - |
| 1777446433 | 6.67° C | 59% | 1028.7 hPa | 0 mm | - | - | - |
| 1777446133 | 6.67° C | 59% | 1028.6 hPa | 0 mm | - | - | - |
| 1777445833 | 6.67° C | 61% | 1028.6 hPa | 0 mm | - | - | - |
| 1777445532 | 6.11° C | 63% | 1028.6 hPa | 0 mm | - | - | - |
| 1777445232 | 6.11° C | 64% | 1028.6 hPa | 0 mm | - | - | - |
| 1777444932 | 5.56° C | 64% | 1028.6 hPa | 0 mm | - | - | - |
* Rain latest hour (hover to see other rain measurements)
** Current wind speed in m/s (hover to see current wind gust speed)